Voltar ao catálogo

STARLINK-6061

AtivoComunicaçõesVLEO
NORAD 56795·PAYLOAD·🇺🇸 United States

Lançado May 31, 2023 de Vandenberg Space Force Base

Loading…

Próximas Passagens (próximas 24 horas)

TLE

AtualizadoSource: CelesTrak SupGP

Época: Sep 14, 2026, 20:38 UTC

1 56795C 23078AE  26257.86020833  .00017900  00000+0  14998-2 0  2570
2 56795  70.0016 207.3168 0003023 266.1785  94.6825 14.98329302    14

Acompanhe STARLINK-6061 em tempo real com AllMySat

Download on the App Store